www.pogodaiklimat.ru

Погода и климат >> Архив погоды >> Оман >> Рустак


ПОГОДА в Рустаке

  • Прогноз погоды в Рустаке
  • Монитор погоды в Рустаке

АРХИВ ПОГОДЫ в Рустаке

Время (UTC), дата Ветер
(напр.,м/с)
 
Видим.   Явления Облачность Т
(С)
Тd
(С)
f
(%)
Тe
(С)
Тes
(С)
Комфортность P
(гПа)
Po
(гПа)
Тmin
(С)
Tmax
(С)
R
(мм)
R24
(мм)
S
(см)
03 13.08 СЗ 3 н/о н/о +29.8 +25.9 80 +45 +45 опасность
перегрева
998.7 964.3
06 13.08 н/о н/о +33.5 +26.5 67 998.7 964.7 +29.8
09 13.08 С 4 н/о н/о +37.9 +25.6 50 +52 +52 опасность
перегрева
997.0 963.5
12 13.08 н/о н/о +37.0 +24.5 49 996.7 963.0
15 13.08 С 2 н/о н/о +34.7 +24.5 56 +48 +48 опасность
перегрева
997.7 963.8
18 13.08 ЮВ 1 н/о н/о +34.1 +24.1 56 +46 +46 опасность
перегрева
997.8 963.9 +38.8
21 13.08 С 3 н/о н/о +31.4 +22.9 61 +42 +42 опасность
перегрева
998.0 963.7
00 14.08 С 1 н/о н/о +30.9 +22.4 61 +40 +40 очень
душно
998.7 964.3
03 14.08 Ю 1 н/о н/о +31.3 +23.6 64 +42 +42 опасность
перегрева
999.8 965.5
06 14.08 СЗ 2 н/о н/о +36.4 +23.1 46 +46 +46 опасность
перегрева
999.9 966.1 +30.0
09 14.08 З 2 н/о н/о +40.6 +20.8 32 +47 +47 опасность
перегрева
998.1 964.8
12 14.08 С 3 н/о н/о +41.1 +16.0 23 +43 +43 опасность
перегрева
997.0 963.7
15 14.08 З 2 н/о н/о +38.9 +12.8 21 +39 +39 очень
жарко
997.6 964.0
18 14.08 Ю 2 н/о н/о +36.0 +15.3 29 +38 +38 очень
душно
999.0 965.1 +42.9
21 14.08 СВ 2 н/о н/о +32.5 +22.4 55 +42 +42 опасность
перегрева
998.5 964.3
00 15.08 З 1 н/о н/о +31.2 +19.9 51 +37 +37 очень
душно
999.2 964.9
03 15.08 штиль 0 н/о н/о +31.5 +19.1 48 +37 +37 очень
душно
1001.3 966.9
06 15.08 С 2 н/о н/о +38.2 +15.1 26 +40 +40 очень
душно
1001.1 967.3 +30.2
09 15.08 СЗ 3 н/о н/о +40.8 +11.3 17 +40 +40 очень
жарко
999.3 965.8
12 15.08 н/о н/о +40.7 +12.1 18 997.5 964.1
15 15.08 С 3 н/о н/о +36.0 +19.5 38 +41 +41 опасность
перегрева
998.3 964.5
18 15.08 штиль 0 н/о н/о +34.4 +20.0 43 +40 +40 очень
душно
999.8 965.8 +41.8
21 15.08 СЗ 4 н/о н/о +31.4 +17.9 45 +36 +36 очень
душно
965.5
00 16.08 штиль 0 н/о н/о +29.4 +18.6 52 +34 +34 очень
душно
999.6 965.0
03 16.08 штиль 0 н/о н/о +29.8 +19.0 52 +35 +35 очень
душно
1000.7 966.1
06 16.08 З 2 н/о н/о +36.9 +14.6 27 +38 +38 очень
душно
1000.6 966.7 +28.6
09 16.08 З 2 н/о н/о +40.8 +7.7 14 +39 +39 очень
жарко
998.2 964.7
12 16.08 СЗ 3 н/о н/о +41.6 +12.6 18 +41 +41 опасность
перегрева
996.0 962.8
15 16.08 С 2 н/о н/о +35.8 +17.6 34 +39 +39 очень
душно
997.3 963.4
18 16.08 штиль 0 н/о н/о +33.5 +20.2 46 +40 +40 очень
душно
997.7 963.6 +43.3
21 16.08 Ю 1 н/о н/о +32.8 +20.0 47 +39 +39 очень
душно
997.0 962.8
00 17.08 СВ 1 н/о н/о +29.2 +21.5 63 +37 +37 очень
душно
997.0 962.5
03 17.08 В 1 н/о н/о +30.2 +20.7 57 +37 +37 очень
душно
998.4 963.9
06 17.08 С 2 н/о н/о +38.0 +17.5 30 +41 +41 опасность
перегрева
998.3 964.6 +28.7
09 17.08 С 3 н/о н/о +42.9 +7.0 12 +41 +41 опасность
перегрева
996.4 963.2
12 17.08 н/о н/о +41.8 +10.9 16 995.2 962.0
15 17.08 н/о н/о +36.6 +11.9 23 996.6 962.8
18 17.08 В 1 н/о н/о +33.5 +18.4 41 +38 +38 очень
душно
997.5 963.4 +43.9
21 17.08 Ю 2 н/о н/о +31.7 +20.0 50 +38 +38 очень
душно
997.3 963.0
00 18.08 З 2 н/о н/о +27.8 +26.6 93 +43 +43 опасность
перегрева
998.8 964.2
03 18.08 штиль 0 н/о н/о +28.7 +26.1 86 +43 +43 опасность
перегрева
1000.4 965.8
06 18.08 С 2 н/о н/о +36.1 +16.5 31 +38 +38 очень
душно
1000.9 966.9 +27.4
09 18.08 С 4 н/о н/о +38.3 +21.0 37 +45 +45 опасность
перегрева
1000.1 966.5
12 18.08 н/о н/о +37.8 +20.5 37 999.0 965.3
15 18.08 СЗ 3 н/о н/о +33.4 +23.5 56 +44 +44 опасность
перегрева
999.9 965.8
18 18.08 В 2 н/о н/о +30.6 +23.6 66 +41 +41 опасность
перегрева
1001.3 966.9 +39.2
21 18.08 СЗ 2 н/о н/о +29.1 +24.1 74 +40 +40 очень
душно
1001.3 966.6
00 19.08 С 2 н/о н/о +27.1 +25.0 88 +39 +39 очень
душно
1001.4 966.6
03 19.08 штиль 0 н/о н/о +28.8 +24.7 79 +41 +41 опасность
перегрева
1003.3 968.6
06 19.08 СВ 2 н/о н/о +32.9 +24.3 61 +45 +45 опасность
перегрева
1004.1 969.8 +26.9
09 19.08 СЗ 3 н/о н/о +37.4 +21.5 40 +45 +45 опасность
перегрева
1002.1 968.3
12 19.08 С 4 н/о н/о +37.8 +22.3 41 +46 +46 опасность
перегрева
1000.9 967.2
15 19.08 СЗ 3 н/о н/о +33.4 +21.2 49 +41 +41 опасность
перегрева
1002.2 967.9
18 19.08 СЗ 1 н/о н/о +31.4 +18.0 45 +36 +36 очень
душно
1003.4 968.9 +39.1
21 19.08 С 3 н/о н/о +29.3 +20.8 60 +36 +36 очень
душно
1002.9 968.1

 

Местоположение метеостанции Рустак (Оман): широта 23.40 долгота 57.42 высота над уровнем моря 322 м.

В архиве по умолчанию представлена погода в Рустаке за последнюю неделю. Архивные данные за месяц целиком и за предыдущие месяцы, начиная с января 2011 года, Вы можете получить, выбрав интересующий диапазон дат из раскрывающегося списка и нажав кнопку "Ввод!".


*Определитесь, кто Вы:
робот инопланетянин человек

Внимание! Время в таблицах - всемирное. Для получения местного времени необходимо прибавить поправку, которая равна 4 ч.

Смотрите также архив погоды в соседних городах и на ближайших метеорологических станциях:

Погода на Эш-Шам (Оман) (23 км)
Погода в Саике (Оман) (43 км)
Погода в Бахле (Оман) (48 км)
Погода в Эс-Сувейке (Оман) (49 км)
Погода в Самаиле (Оман) (53 км)
Погода в Назве (Оман) (62 км)
Погода в Сибе (Оман) (90 км)
Погода в Ибри (Оман) (92 км)
Погода в Аль Амарат (Оман) (109 км)
Погода в Адаме (Оман) (114 км)

Пояснения к столбцам:

Ветер - указаны скорость ветра в м/с - средняя за 10 мин, порывы в срок и между сроками (в фигурных скобках) и направление, откуда дует ветер: С - северный, СВ - северо-восточный, В - восточный, ЮВ - юго-восточный, Ю - южный, ЮЗ - юго-западный, З - западный, СЗ - северо-западный.
Видимость - горизонтальная дальность видимости в метрах или километрах. При видимости от 1 до 10 км при отсутствии осадков обычно наблюдается дымка, при ухудшении видимости до 1 км и менее - туман. В сухую погоду видимость может ухудшаться дымом, пылью или мглою.
Явления - указаны атмосферные явления, наблюдавшиеся в срок или в последний час перед сроком; фигурными скобками обозначены явления, наблюдавшиеся между сроками (за 1-3 часа до срока); квадратными скобками обозначены град или гололедные отложения с указанием их диаметра в мм.
Облачность - указаны через наклонную черту общая и нижняя облачность в баллах и высота нижней границы облаков в метрах; квадратными скобками обозначены формы облаков: Ci - перистые, Cs - перисто-слоистые, Cc - перисто-кучевые, Ac - высококучевые, As - высокослоистые, Sc - слоисто-кучевые, Ns - слоисто-дождевые, Cu - кучевые, Cb - кучево-дождевые. Подробнее классификацию облаков см. в Атласе облаков (PDF).
T - Температура воздуха - температура, измеренная на высоте 2 м над землей.
Td - Температура точки росы - температура, при понижении до которой содержащийся в воздухе водяной пар достигнет насыщения.
f - Относительная влажность воздуха - влажноcть воздуха, измеренная на высоте 2 м над землей.
Te - Эффективная температура - температура, которую ощущает одетый по сезону человек в тени. Характеристика душности погоды. При расчете учитывается влияние влажности воздуха и скорости ветра на теплоощущения человека.
Tes - Эффективная температура на солнце - температура, которую ощущает человек, с поправкой на солнечный нагрев. Характеристика знойности погоды. Зависит от высоты солнца над горизонтом, облачности и скорости ветра. Ночью, в пасмурную погоду, а также при ветре 12 м/с и более поправка равна нулю.
P - Атмосферное давление - приведенное к уровню моря атмосферное давление.
Po - Атмосферное давление - измеренное на уровне метеостанции атмосферное давление.
Tmin - Минимальная температура - минимум температуры воздуха на высоте 2 м над землей.
Tmax - Максимальная температура - максимум температуры воздуха на высоте 2 м над землей.
R - Количество осадков - Количество выпавших осадков за период времени, мм. При наведении курсора мыши на число - период времени, за который выпало указанное количество осадков.
R24 - Количество осадков - Количество выпавших осадков за 24 часа, мм.
S - Снежный покров - Высота снежного покрова, см. При наведении курсора мыши на число - состояние снежного покрова и степень покрытия местности в баллах.